Погода в Копыле

Беларусь     53°09′03″N   27°05′26″E
темп.,
°C
ветер,
м/с
пор.,
м/с
влажн.,
%
обл.,
%
осадки,
мм/ч
давл.,
гПа
погр.,
м
8 марта, пн
пн800:00−4зсз5138975 0.1 1007519
03:00−5зсз5128938 0.1 1008489
06:00−7зсз513886 0.0 1008511
09:00−5зсз6129239 0.1 1009630
12:00−3сз6875100 0.4 10111210
15:00−2сз697298 0.6 10131368
18:00−4сз498099 0.2 1014769
21:00−5ссз3893100 0.3 1017432
9 марта, вт
вт900:00−8ссз238999 0.0 101876
03:00−9ссз239060 0.0 102046
06:00−10сз23910 0.0 102129
09:00−9зсз22939 0.0 102260
12:00−5сз237561 0.0 1023498
15:00−4зюз337865 0.0 1023511
18:00−6зюз238659 0.0 1022116
21:00−8зюз228665 0.0 102324
10 марта, ср
ср1000:00−8юз2384100 0.0 102332
03:00−8юз238393 0.0 102334
06:00−9юз228332 0.0 102323
09:00−8юз238016 0.0 102348
12:00−4зюз23740 0.0 1023256
15:00−2зюз23730 0.0 1022421
18:00−4юз12820 0.0 102241
21:00−6юз22820 0.0 102223
11 марта, чт
чт1100:00−7юз22818 0.0 102323
03:00−7юз238244 0.0 102326
06:00−7ююз238177 0.0 102226
09:00−6ю348176 0.0 102393
12:00−2ююв367528 0.0 1022338
15:000ююв476814 0.0 10211128
18:00−1ююв4107096 0.0 1019304
21:00−2ююв6147198 0.0 1017498
12 марта, пт
пт1200:00−2ююв81770100 0.0 1015709
03:00−2ю101891100 0.1 1011807
06:00−1ю101795100 2.9 1007883
09:00+1ююз51099100 5.3 1007349
12:00+2юз511100100 0.3 1007378
15:00+3юз6139999 0.6 1006554
18:00+2з5139897 0.8 1007612
21:000зюз499071 0.8 1009195